Change the Weather History Date:

Tuesday, June 10, 2014

  Actual Average Record
Temperature  
Mean Temperature 60 °F -  
Max Temperature 75 °F 67 °F 86 °F (2012)
Min Temperature 44 °F 44 °F 35 °F (2006)
Degree Days  
Heating Degree Days 6    
Growing Degree Days 10 (Base 50)    
Moisture  
Dew Point 45 °F    
Average Humidity 57    
Maximum Humidity 93    
Minimum Humidity 29    
Precipitation  
Precipitation 0.00 in - - ()
Sea Level Pressure  
Sea Level Pressure 29.95 in    
Wind  
Wind Speed 4 mph (South)    
Max Wind Speed 15 mph    
Max Gust Speed 20 mph    
Visibility 10 miles    
Events      
Averages and records for this station are not official NWS values.
T = Trace of Precipitation, MM = Missing Value Source: NWS Daily Summary

Daily Weather History Graph

Daily Weather History Graph

Search for Another Location

Airport or City:

Trip Planner

Search our weather history database for the weather conditions in past years. The results will help you decide how hot, cold, wet, or windy it might be!

Date:

Astronomy

Jun. 10, 2014 Rise Set
Actual Time 5:08 AM CDT 9:05 PM CDT
Civil Twilight 4:28 AM CDT 9:45 PM CDT
Nautical Twilight 3:32 AM CDT 10:42 PM CDT
Astronomical Twilight 2:04 AM CDT 12:11 AM CDT
Moon 6:20 PM CDT (6/10) 3:27 AM CDT (6/10)
Length of Visible Light 17h 17m
Length of Day
15h 56m
Waxing Gibbous, 92% of the Moon is Illuminated
Jun 10
Waxing Gibbous
Jun 12
Full
Jun 19
Last Quarter
Jun 27
New
Jul 5
First Quarter

Hourly Weather History & Observations

Time (CDT) Temp. Dew Point Humidity Pressure Visibility Wind Dir Wind Speed Gust Speed Precip Events Conditions
12:12 AM 48.2 °F 44.6 °F 87% 29.98 in 10.0 mi Calm Calm - N/A   Clear
12:33 AM 48.2 °F 44.6 °F 87% 29.97 in 10.0 mi Calm Calm - N/A   Clear
12:53 AM 48.2 °F 44.6 °F 87% 29.97 in 10.0 mi Calm Calm - N/A   Clear
1:12 AM 46.4 °F 44.6 °F 93% 29.97 in 10.0 mi Calm Calm - N/A   Clear
1:33 AM 44.6 °F 42.8 °F 93% 29.97 in 3.0 mi Calm Calm - N/A   Clear
1:53 AM 46.4 °F 44.6 °F 93% 29.97 in 10.0 mi Calm Calm - N/A   Clear
2:12 AM 48.2 °F 44.6 °F 87% 29.97 in 10.0 mi South 3.5 mph - N/A   Scattered Clouds
2:33 AM 50.0 °F 44.6 °F 82% 29.97 in 10.0 mi South 3.5 mph - N/A   Mostly Cloudy
2:53 AM 50.0 °F 44.6 °F 82% 29.97 in 10.0 mi SSE 4.6 mph - N/A   Mostly Cloudy
3:12 AM 50.0 °F 44.6 °F 82% 29.98 in 10.0 mi SSE 4.6 mph - N/A   Scattered Clouds
3:33 AM 50.0 °F 44.6 °F 82% 29.98 in 10.0 mi South 3.5 mph - N/A   Scattered Clouds
3:53 AM 48.2 °F 44.6 °F 87% 29.98 in 10.0 mi SSE 3.5 mph - N/A   Scattered Clouds
4:12 AM 50.0 °F 44.6 °F 82% 29.98 in 10.0 mi South 3.5 mph - N/A   Scattered Clouds
4:33 AM 48.2 °F 44.6 °F 87% 29.98 in 10.0 mi South 3.5 mph - N/A   Clear
4:53 AM 48.2 °F 44.6 °F 87% 29.98 in 10.0 mi Calm Calm - N/A   Clear
5:12 AM 48.2 °F 44.6 °F 87% 29.99 in 10.0 mi Calm Calm - N/A   Clear
5:33 AM 48.2 °F 44.6 °F 87% 29.99 in 10.0 mi SSW 3.5 mph - N/A   Clear
5:46 AM 48.2 °F 44.6 °F 87% 29.99 in 10.0 mi South 3.5 mph - N/A   Clear
6:11 AM 50.0 °F 44.6 °F 82% 30.00 in 10.0 mi Calm Calm - N/A   Clear
6:33 AM 51.8 °F 46.4 °F 82% 30.00 in 10.0 mi Calm Calm - N/A   Clear
6:52 AM 53.6 °F 48.2 °F 82% 30.00 in 10.0 mi Calm Calm - N/A   Clear
7:13 AM 55.4 °F 48.2 °F 77% 30.00 in 10.0 mi SSW 3.5 mph - N/A   Clear
7:32 AM 57.2 °F 48.2 °F 72% 30.00 in 10.0 mi SSW 4.6 mph - N/A   Clear
7:53 AM 60.8 °F 48.2 °F 63% 30.00 in 10.0 mi SSW 4.6 mph - N/A   Clear
8:13 AM 60.8 °F 48.2 °F 63% 30.00 in 10.0 mi SSW 5.8 mph - N/A   Clear
8:32 AM 62.6 °F 48.2 °F 59% 30.00 in 10.0 mi South 6.9 mph - N/A   Clear
8:53 AM 64.4 °F 50.0 °F 59% 30.00 in 10.0 mi SSW 4.6 mph - N/A   Clear
9:13 AM 66.2 °F 51.8 °F 60% 29.99 in 10.0 mi South 4.6 mph - N/A   Clear
9:32 AM 66.2 °F 48.2 °F 52% 29.99 in 10.0 mi SSW 5.8 mph - N/A   Clear
9:53 AM 68.0 °F 48.2 °F 49% 29.99 in 10.0 mi SSW 6.9 mph - N/A   Clear
10:13 AM 69.8 °F 50.0 °F 49% 29.98 in 10.0 mi South 6.9 mph - N/A   Clear
10:32 AM 69.8 °F 48.2 °F 46% 29.98 in 10.0 mi SSW 6.9 mph - N/A   Clear
10:53 AM 69.8 °F 46.4 °F 43% 29.98 in 10.0 mi South 10.4 mph - N/A   Clear
11:13 AM 69.8 °F 44.6 °F 40% 29.98 in 10.0 mi South 6.9 mph - N/A   Clear
11:32 AM 71.6 °F 46.4 °F 41% 29.97 in 10.0 mi SSW 6.9 mph - N/A   Clear
11:53 AM 71.6 °F 44.6 °F 38% 29.96 in 10.0 mi South 4.6 mph - N/A   Clear
12:13 PM 71.6 °F 44.6 °F 38% 29.96 in 10.0 mi South 3.5 mph - N/A   Clear
12:33 PM 71.6 °F 44.6 °F 38% 29.95 in 10.0 mi South 5.8 mph - N/A   Scattered Clouds
12:53 PM 73.4 °F 44.6 °F 36% 29.95 in 10.0 mi SSW 9.2 mph - N/A   Scattered Clouds
1:13 PM 73.4 °F 44.6 °F 36% 29.95 in 10.0 mi SSW 9.2 mph - N/A   Scattered Clouds
1:32 PM 73.4 °F 42.8 °F 33% 29.94 in 10.0 mi South 6.9 mph 12.7 mph N/A   Scattered Clouds
1:53 PM 73.4 °F 42.8 °F 33% 29.94 in 10.0 mi South 6.9 mph - N/A   Scattered Clouds
2:12 PM 75.2 °F 42.8 °F 31% 29.94 in 10.0 mi South 8.1 mph 18.4 mph N/A   Scattered Clouds
2:33 PM 75.2 °F 42.8 °F 31% 29.94 in 10.0 mi South 11.5 mph 17.3 mph N/A   Scattered Clouds
2:53 PM 73.4 °F 41.0 °F 31% 29.94 in 10.0 mi SSW 8.1 mph 17.3 mph N/A   Scattered Clouds
3:12 PM 75.2 °F 41.0 °F 29% 29.93 in 10.0 mi SSE 15.0 mph 19.6 mph N/A   Scattered Clouds
3:33 PM 75.2 °F 41.0 °F 29% 29.93 in 10.0 mi South 10.4 mph 17.3 mph N/A   Clear
3:53 PM 75.2 °F 42.8 °F 31% 29.93 in 10.0 mi SSW 10.4 mph 16.1 mph N/A   Clear
4:12 PM 73.4 °F 41.0 °F 31% 29.93 in 10.0 mi South 8.1 mph - N/A   Clear
4:33 PM 73.4 °F 41.0 °F 31% 29.93 in 10.0 mi SSW 9.2 mph - N/A   Clear
4:53 PM 73.4 °F 42.8 °F 33% 29.93 in 10.0 mi South 9.2 mph - N/A   Scattered Clouds
5:12 PM 73.4 °F 42.8 °F 33% 29.93 in 10.0 mi SSE 10.4 mph - N/A   Scattered Clouds
5:33 PM 71.6 °F 42.8 °F 35% 29.92 in 10.0 mi SSE 6.9 mph - N/A   Mostly Cloudy
5:53 PM 73.4 °F 44.6 °F 36% 29.92 in 10.0 mi South 11.5 mph - N/A   Scattered Clouds
6:12 PM 71.6 °F 44.6 °F 38% 29.92 in 10.0 mi South 5.8 mph - N/A   Scattered Clouds
6:33 PM 73.4 °F 44.6 °F 36% 29.91 in 10.0 mi SSE 12.7 mph - N/A   Scattered Clouds
6:53 PM 71.6 °F 44.6 °F 38% 29.91 in 10.0 mi South 5.8 mph 9.2 mph N/A   Clear
7:13 PM 71.6 °F 46.4 °F 41% 29.91 in 10.0 mi South 6.9 mph - N/A   Clear
7:33 PM 71.6 °F 46.4 °F 41% 29.91 in 10.0 mi South 6.9 mph - N/A   Clear
7:53 PM 69.8 °F 44.6 °F 40% 29.91 in 10.0 mi South 5.8 mph - N/A   Scattered Clouds
8:12 PM 68.0 °F 46.4 °F 46% 29.91 in 10.0 mi SSE 5.8 mph - N/A   Scattered Clouds
8:33 PM 66.2 °F 46.4 °F 49% 29.91 in 10.0 mi SSE 6.9 mph - N/A   Clear
8:53 PM 64.4 °F 46.4 °F 52% 29.91 in 10.0 mi SSE 6.9 mph - N/A   Clear
9:12 PM 64.4 °F 44.6 °F 49% 29.92 in 10.0 mi SSE 6.9 mph - N/A   Clear
9:33 PM 62.6 °F 44.6 °F 52% 29.92 in 10.0 mi SSE 5.8 mph - N/A   Clear
9:53 PM 60.8 °F 44.6 °F 55% 29.92 in 10.0 mi SE 6.9 mph - N/A   Clear
10:12 PM 60.8 °F 42.8 °F 52% 29.92 in 10.0 mi SSE 5.8 mph - N/A   Clear
10:33 PM 57.2 °F 44.6 °F 63% 29.92 in 10.0 mi Calm Calm - N/A   Clear
10:53 PM 57.2 °F 44.6 °F 63% 29.92 in 10.0 mi SSE 3.5 mph - N/A   Clear
11:12 PM 57.2 °F 44.6 °F 63% 29.91 in 10.0 mi SSE 4.6 mph - N/A   Clear
11:33 PM 55.4 °F 42.8 °F 63% 29.91 in 10.0 mi SE 3.5 mph - N/A   Clear
11:53 PM 53.6 °F 42.8 °F 67% 29.90 in 10.0 mi Calm Calm - N/A   Clear